STARLINK-1835, 46782

Orbit data source: Space-Track

STARLINK-1835, 46782 is a payload satellite owned by SpaceX/Seattle (US) in LEO that was launched on Sat, 24 Oct 2020 UTC via an FALCON 9 launch vehicle from the Air Force Eastern Test Range (AFETR). Payload-class satellites include a variety of spacecraft equipped with specific instruments for various scientific and technological missions. These include communications satellites like Starlink; space stations such as the ISS; scientific satellites like the Hubble; Earth observation satellites from companies like Planet Labs, Umbra, and HawkEye 360; GPS; miniature CubeSats for education and research; and military/defense satellites.

Loading next visibility...
Identifier
46782, 2020-074AV
Orbit
LEO
Country
Flag of USUS
Related business
Manufacturer
SpaceX/Seattle
Mission
Partially operational Commercial Communications
Bus & Motor
STARLINK, Unknown motor
Mass
260 kg wet, ~248 kg dry
Launch date (UTC)
2020-10-24 (5 years ago)
Launch vehicle
FALCON 9
Launch site
Air Force Eastern Test Range (AFETR)
Object type
Payload
Rocket body
Debris
Shape & HBR
Box + 1 Pan, 10.1 m
Radar Cross Section
13.562 m², Large (>1 m²)

Expand to show TLE details & history
Last TLE update: 19 hours ago

TLE from 19 hours ago
0 STARLINK-1835
1 46782U 20074AV  25340.54162379  .00034609  00000-0  87464-3 0  9995
2 46782  53.0528   1.3928 0009376  20.7169 339.4213 15.39461466282894
Epoch: 2025-12-06T12:59Z
TLE epoch observation values (Epoch: 2025-12-06T12:59:56.295Z)
Latitude
Longitude
90.84036°
Altitude
442.602 km
Speed
7.651 km/s
True Right ascension
00h 05m 34s
True Declination
0° 00' 00"
Sunlit
Object was in daylight at epoch
Visualization orbit readout
Latitude
Unknown
Longitude
Unknown
Altitude
Unknown
Speed
Unknown
Apparent Right ascension
Unknown
Apparent Declination
Unknown
Sunlit
N/A
Visualization observer readout
Local Sidereal Time
06:19:18
Azimuth
Unknown
Elevation
Unknown
Doppler factor
Unknown
Orbital elements
Apogee altitude
454.376 km
Perigee altitude
441.575 km
Semi-major axis
6,826.113 km
Eccentricity
0.00094
Inclination
53.0528°
RAAN
1.3928°
Arg. of periapsis
20.7169°
True anomaly
339.38349°
Mean anomaly
339.4213°
Eccentric anomaly
339.4024°
Mean motion
3.84842 °/min
Orbital period
93.54 mins
BSTAR
0.00087464
Loading maneuver chart data...
Computing Atmospheric mass density...

Documentation

Showing up to 5 results
|